Terminal Aerodrome Forecast
Issued by NWS

Home | Current Version | Previous Version | Text Only | Print | Product List | Glossary On
Versions: 1 2 3 4 5 6 7 8 9 10 11 12 13 14 15 16 17
000
FTUS45 KVEF 060522
TAFBIH
TAF
KBIH 060522Z 0606/0706 35009KT P6SM SCT120
     FM061800 16006KT P6SM FEW120
     FM062000 17012G20KT P6SM SCT100 BKN150
      TEMPO 0623/0703 VRB12G20KT P6SM -TSRA SCT100CB BKN150
     FM070300 35008KT P6SM SKC=

USA.gov is the U.S. government's official web portal to all federal, state and local government web resources and services.